Find Starlink 6181

NORAD ID: 56888 Int'l Des: 2023-083 Owner: SPXS Country: US Constellation: starlink operational
LEOCIRCULAR

当前视图

正在加载3D地球...

About Starlink 6181

Starlink 6181 (NORAD 56888) is a starlink constellation satellite (v1.5) launched Jun 12, 2023 by SPXS of US. It operates in LEO, CIRCULAR orbit with a mass of 305.00 kg.

关于 Starlink 6181

正在加载描述...

即将过境

Passes for default location (London). Set your location on the main map for personalized predictions.

高度历史

Loading altitude history...

两行轨道根数

1 56888U 23083N 26171.44620815 .00002844 00000-0 11276-3 0 9996
2 56888 43.0009 228.4674 0001374 270.7005 89.3689 15.27597096167303
Epoch: Jun 20, 2026 • Age: 7 hours

当前状态

高度 486.8 km
速度 7.62 km/s
星下点 -19.46°S, 108.5°W
发射日期 Jun 12, 2023
运行时间 3 years
类型 internet

技术详情

分类 Payload
质量 305.00 kg
干质量 290.00 kg
总质量 305.00 kg
长度 0.20 m
直径 2.80 m
跨度 9.00 m
形状 Box + pan
制造商 SPXS
平台类型 Starlink
阶段状态 In Orbit
所有者/国家 SPXS/US

Most Searched